Overview Statistics Trail Chart Weather Telemetry Raw packets
 

This is the latest recevied weather packets stored in our database for station/object WX0ABE-13. If no packets are shown the sender has not sent any weather packets the latest 10 day(s).

<< 102 103 104 105 106 107 108 >>
Time Temp. Humidity Pressure Rain* Wind** Luminosity Snow
1787598518 35° C 26% 1018.6 hPa 0 mm - 688 W/m² -
1787598212 35° C 25% 1018.7 hPa 0 mm - 687 W/m² -
1787597908 35° C 24% 1018.7 hPa 0 mm - 690 W/m² -
1787597607 35° C 25% 1018.6 hPa 0 mm - 692 W/m² -
1787597307 35° C 26% 1018.9 hPa 0 mm - 678 W/m² -
1787597002 34.44° C 27% 1018.7 hPa 0 mm - 691 W/m² -
1787596699 35° C 25% 1019 hPa 0 mm - 687 W/m² -
1787596394 34.44° C 27% 1018.7 hPa 0 mm - 685 W/m² -
1787596090 34.44° C 26% 1018.7 hPa 0 mm - 685 W/m² -
1787595785 34.44° C 29% 1018.7 hPa 0 mm - 609 W/m² -
1787595481 34.44° C 26% 1019 hPa 0 mm - 679 W/m² -
1787595176 33.89° C 28% 1018.9 hPa 0 mm - 675 W/m² -
1787594876 33.89° C 25% 1019 hPa 0 mm - 674 W/m² -
1787594576 33.89° C 26% 1019.1 hPa 0 mm - 665 W/m² -
1787594274 33.89° C 25% 1019.1 hPa 0 mm - 657 W/m² -
1787593969 33.89° C 27% 1019 hPa 0 mm - 656 W/m² -
1787593664 33.89° C 27% 1019.1 hPa 0 mm - 645 W/m² -
1787593359 33.89° C 28% 1019.1 hPa 0 mm - 485 W/m² -
1787593055 33.89° C 27% 1019.2 hPa 0 mm - 569 W/m² -
1787592755 33.89° C 27% 1019.2 hPa 0 mm - 266 W/m² -
1787592455 33.33° C 27% 1019.3 hPa 0 mm - 109 W/m² -
1787592150 33.33° C 28% 1019.4 hPa 0 mm - 161 W/m² -
1787591845 33.33° C 26% 1019.2 hPa 0 mm - 650 W/m² -
1787591545 33.33° C 28% 1019.3 hPa 0 mm - 489 W/m² -
1787591242 33.33° C 27% 1019.2 hPa 0 mm - 596 W/m² -

* Rain latest hour (hover to see other rain measurements)
** Current wind speed in m/s (hover to see current wind gust speed)